CZ-6A DEB

Satellite information

Favourite Embed

Satellite Type and Status

DEBRISIN ORBIT

Key statistics

Satellite CZ-6A DEB at a glance.

Uptime

439

Days in orbit

Revolutions

≈ 14.1

Per day

Orbit

LEO

Low Earth Orbit

Inclination

89.1

Latest

Satellite identification and parameters

Extended collection of information and parameters for CZ-6A DEB.

Object identification

Identified? True

Debris? True

Object name: CZ-6A DEB

International designator: 2024-140ADG

Object number (NORAD): 61840

Object ID (CCSDS): 61840

Country: PEOPLES REPUBLIC OF CHINA (PRC)

Current information (Y/N): Y

RCS size: SMALL

Orbital parameters

Period: 101.783 minutes

Inclination: 89.055 deg

SMA: 7221.194 km

Apoapsis: 896.273 km

Periapsis: 789.844 km

RAAN: 305.3967 deg

Eccentricy: 0.00736919

Argument of periapsis: 267.0318 deg

Mean anomaly: 92.2434 deg

Mean motion: 14.14781222 rev/day

Mean motion (dot): 0.0000294 rev/day2

B* drag term: 0.0014800725 1/REarth

Two-line elements (TLE)

Creation date: Oct. 18, 2025, 2:17 a.m.

Reference frame: TEME

Reference center: EARTH

Epoch: Oct. 17, 2025, 6:24 p.m. UTC

TLE line 0: 0 CZ-6A DEB

TLE line 1: 1 61840U 24140ADG 25290.76730707 .00002940 00000-0 14801-2 0 9996

TLE line 2: 2 61840 89.0550 305.3967 0073692 267.0318 92.2434 14.14781222 58981

Live tracking on map

Real-time ground track for satellite CZ-6A DEB.

In-orbit conjunctions

A list of the most updated potential collisions computed for object CZ-6A DEB.

Target Orbit TCA Probability of collision Miss distance Type
THORAD AGENA D DEB SSO 2025-02-21 05:29:36 0.0001432947 381.0 (m) DEBRIS
FENGYUN 1C DEB SSO 2025-02-05 22:40:22 0.0001216841 868.0 (m) DEBRIS
COSMOS 397 DEB LEO 2025-01-03 02:35:46 0.0001343721 592.0 (m) DEBRIS
CZ-6A DEB LEO 2024-11-25 13:42:40 0.0002743955 601.0 (m) DEBRIS
FENGYUN 1C DEB SSO 2024-11-12 19:52:23 0.0001819832 358.0 (m) DEBRIS

Associated space launch

18 Low Earth Orbit communication satellites with Ku, Q and V band payloads for the G60 constellation operated by Shanghai Spacecom Satellite Technology (SSST) with funding backed by the Shanghai local government. Initial constellation will consist of 1296 satellites by 2027 with long term plans to expand it to 12000 satellites.

CZ-6A DEB was lifted into orbit during the mission ‘Long March 6A | G60 Polar Group 01’, on board a Long March 6A space rocket.

The launch took place on Aug. 6, 2024, 6:42 a.m. from Launch Complex 9A.

For more information about the launch, click the button.

Launch to space Long March 6A | G60 Polar Group 01
Long March 6A | G60 Polar Group 01

Agency: N/A

Status: Launch Successful

Launch date: Aug. 6, 2024, 6:42 a.m. UTC

Rocket: Long March 6A

Launch pad: Launch Complex 9A

Location: Taiyuan Satellite Launch Center, People's Republic of China

...

Latest news about this satellite

News about space launch
Brightness of first Chinese broadband constellation satellites alarms astronomers

The first satellites of a Chinese broadband constellation are significantly brighter than those of Western systems, posing a new challenge for astronomers.

News about space launch
Chinese rocket stage breaks up into cloud of more than 700 pieces of space debris

HELSINKI — A Chinese Long March 6A rocket’s upper stage has fragmented into a cloud of over 700 pieces of space debris, adding to concerns about long-term orbital safety. China […]

News about space launch
China's Thousand Sails Megaconstellation Kicks Off with Dangerous Debris Field

China's Thousand Sails Megaconstellation Kicks Off with Dangerous Debris Field


Newsletter sign-up

Weekly statistics, charts and insights to help you stay on top of the space industry.